Home > Weather > Naugarh > Past weeks

Flag for India Weather for the Past 2 Weeks in Naugarh, Uttar Pradesh, India

Now
50 °F

Fog.


Feels Like: 50 °F
Forecast: 51 / 83 °F
Wind: No wind

Location: Lucknow / Amausi

Current Time: Feb 11, 2016 at 6:54:43 AM

Latest Report: Feb 11, 2016 at 6:00 AM


Visibility: 0 mi

Pressure: 29.83 "Hg

Humidity: 94%

Dew point: 48 °F

Location of NaugarhLocation

Historic Weather in Naugarh — Graph

°F

Naugarh Temperature Yesterday

Maximum temperature yesterday: 79 °F (at 3:00 PM)
Minimum temperature yesterday: 50 °F (at 6:30 AM)
Average temperature yesterday: 65 °F

High & Low Weather Summary for the Past Weeks

 TemperatureHumidityPressure
High82 °F (Jan 31, 2:00 PM)100% (Jan 27, 6:00 AM)30.09 "Hg (Jan 27, 6:00 AM)
Low45 °F (Jan 27, 7:00 AM)29% (Feb 2, 1:30 PM)29.83 "Hg (Feb 10, 4:30 PM)
Average64 °F66%29.97 "Hg
* Reported Jan 27 5:30 AM — Feb 11 5:00 AM, Naugarh, Weather by CustomWeather, © 2016

Note: Actual official high and low records may vary slightly from our data, if they occured in-between our weather recording intervals... More about our weather records

Advertising

Naugarh Weather History for the Previous 24 Hours

 ConditionsComfort  
Time TempWeatherWind HumidityBarometerVisibility
5:00 AM
Thu, Feb 11
50 °FFog.No wind94%29.83 "Hg1 mi
4:00 AM50 °FFog.No wind94%29.83 "Hg1 mi
3:00 AM50 °FFog.No wind94%29.83 "Hg1 mi
2:00 AM52 °FFog.No wind88%29.83 "Hg1 mi
1:00 AM54 °FFog.No wind88%29.83 "Hg1 mi
12:00 AM55 °FFog.No wind88%29.83 "Hg1 mi
11:00 PM
Wed, Feb 10
57 °FHaze.No wind82%29.83 "Hg1 mi
10:00 PM57 °FHaze.No wind77%29.86 "Hg1 mi
9:00 PM61 °FHaze.No wind72%29.86 "Hg1 mi
8:30 PM63 °FHaze.No wind73%29.86 "Hg1 mi
8:00 PM63 °FHaze.No wind73%29.86 "Hg1 mi
7:30 PM64 °FHaze.No wind68%29.83 "Hg2 mi
7:00 PM66 °FHaze.No wind60%29.83 "Hg2 mi
6:30 PM68 °FHaze.No wind56%29.83 "Hg2 mi
6:00 PM70 °FHaze.No wind53%29.83 "Hg2 mi
5:30 PM75 °FHaze.3 mph44%29.83 "Hg2 mi
4:30 PM77 °FHaze.3 mph39%29.83 "Hg2 mi
4:00 PM77 °FHaze.5 mph42%29.86 "Hg2 mi
3:30 PM79 °FHaze.2 mph42%29.86 "Hg2 mi
3:00 PM79 °FHaze.5 mph37%29.86 "Hg3 mi
2:30 PM77 °FHaze.5 mph47%29.89 "Hg3 mi
2:00 PM77 °FHaze.5 mph47%29.89 "Hg2 mi
1:30 PM77 °FHaze.3 mph44%29.92 "Hg2 mi
1:00 PM77 °FHaze.3 mph44%29.92 "Hg2 mi
12:30 PM75 °FHaze.6 mph50%29.95 "Hg1 mi
12:00 PM73 °FHaze.3 mph50%29.95 "Hg1 mi
11:30 AM73 °FHaze.3 mph53%29.98 "Hg1 mi
11:00 AM72 °FHaze.No wind57%29.98 "Hg1 mi
10:00 AM68 °FHaze.No wind64%29.98 "Hg1 mi
9:30 AM63 °FHaze.No wind77%29.98 "Hg1 mi
9:00 AM59 °FFog.No wind94%29.95 "Hg1 mi
8:30 AM54 °FFog.No wind94%29.95 "Hg1 mi
8:00 AM52 °FFog.No wind94%29.95 "Hg1 mi
7:30 AM50 °FFog.No wind94%29.92 "Hg0 mi
6:30 AM50 °FFog.No wind94%29.89 "Hg0 mi
6:00 AM52 °FFog.No wind94%29.89 "Hg0 mi
Weather by CustomWeather, © 2016

See weather overviewHow to use our weather pages